Location: Liscomb Game Sanctuary
(45.1633°N, 62.5575°W)
Time: 16:29:17
(UTC-04:00)

Amateur Radio Satellites - All Passes

Search period start: 26 January 2015 15:59
Search period end: 27 January 2015 15:59
Location: Liscomb Game Sanctuary, 45.1633°N, 62.5575°W

Satellite Date Start Highest point End Downlink Frequencies (MHz)
Time Altitude Azimuth
JAS-2 26 Jan 15:59:36 16:05:11 80° 76° (ENE) 16:10:26 435.910
AUBIESAT-1 26 Jan 16:02:14 16:05:33 78° 290° (WNW) 16:08:53 437.475
RS-15 26 Jan 16:07:21 16:17:26 37° 251° (WSW) 16:27:35 29.354- 29.394
CUSAT 1 26 Jan 16:16:14 16:22:47 47° 269° (W) 16:27:44 437.405
Cubesat XI-IV 26 Jan 16:39:53 16:44:29 32° 65° (ENE) 16:49:12 437.490
O/OREOS (USA 219) 26 Jan 16:53:48 16:58:15 64° 111° (ESE) 17:02:44 437.305
MOZHAYETS 4 26 Jan 16:59:45 17:04:19 64° 101° (E) 17:08:51
CUTE-I 26 Jan 17:00:19 17:05:20 45° 69° (ENE) 17:10:26 437.470
M-CUBED/EXP-1 PRIME 26 Jan 17:02:27 17:04:20 14° 300° (WNW) 17:06:07 437.505
DANDE 26 Jan 17:14:12 17:19:29 22° 280° (W) 17:23:43 436.750
AO-7 26 Jan 17:35:15 17:39:53 15° 276° (W) 17:43:57 29.400- 29.500
JAS-2 26 Jan 17:48:17 17:51:03 13° 273° (W) 17:53:28 435.910
YUBILEINY 26 Jan 17:53:03 17:54:42 11° 72° (ENE) 17:57:04 435.215
SO-50 26 Jan 18:11:59 18:15:39 21° 35° (NE) 18:19:26 436.795
Cubesat XI-IV 26 Jan 18:19:34 18:24:32 38° 263° (W) 18:29:30 437.490
PRISM 26 Jan 18:27:31 18:31:36 56° 101° (E) 18:35:41 437.425
BRITE-PL 26 Jan 18:34:57 18:38:06 17° 59° (ENE) 18:41:34 437.365/2234.400
O/OREOS (USA 219) 26 Jan 18:35:06 18:38:10 17° 311° (NW) 18:41:10 437.305
MOZHAYETS 4 26 Jan 18:38:17 18:41:06 16° 298° (WNW) 18:43:47
CUTE-I 26 Jan 18:41:13 18:45:40 26° 267° (W) 18:50:02 437.470
CANX-2 26 Jan 18:42:34 18:44:05 12° 61° (ENE) 18:45:48 2200.000
CUBESAT XI-V 26 Jan 18:43:20 18:47:59 60° 101° (E) 18:52:38 437.345
GOMX 1 26 Jan 18:46:16 18:49:11 16° 59° (ENE) 18:52:22 467.674
HO-68 26 Jan 18:54:57 19:01:10 34° 61° (ENE) 19:07:29 435.675
CUTE 1.7 + AOD 2 26 Jan 19:05:36 19:08:32 19° 65° (ENE) 19:11:34 437.475
AAUSAT CUBESAT 2 26 Jan 19:06:08 19:07:38 12° 62° (ENE) 19:09:19 437.432
DOVE 4 26 Jan 19:12:06 19:15:35 20° 62° (ENE) 19:19:19 437.250
STRAND 1 26 Jan 19:13:53 19:19:03 78° 103° (ESE) 19:24:14 437.568
CINEMA 3 26 Jan 19:22:36 19:25:08 14° 60° (ENE) 19:27:52 145.822/145.860
SEEDS 26 Jan 19:39:28 19:43:17 33° 70° (ENE) 19:47:10 437.485
YUBILEINY 26 Jan 19:41:24 19:49:49 60° 92° (E) 19:58:20 435.215
DX 1 26 Jan 19:48:40 19:50:12 12° 60° (ENE) 19:51:56 434.975-435.025
SO-50 26 Jan 19:51:54 19:56:51 83° 236° (SW) 20:01:48 436.795
FUNcube-1 26 Jan 19:53:32 19:54:42 11° 59° (ENE) 19:56:07 145.935
UWE-3 26 Jan 20:04:07 20:07:05 17° 63° (ENE) 20:10:12 435.000/436.395/437.385
PRISM 26 Jan 20:04:16 20:06:45 15° 297° (WNW) 20:09:07 437.425
COMPASS 1 26 Jan 20:09:59 20:14:08 59° 74° (ENE) 20:18:19 437.405
BRITE-PL 26 Jan 20:10:59 20:15:58 76° 260° (W) 20:21:23 437.365/2234.400
CANX-2 26 Jan 20:15:10 20:19:29 80° 258° (WSW) 20:23:49 2200.000
GOMX 1 26 Jan 20:21:34 20:26:36 83° 258° (WSW) 20:31:59 467.674
CUBESAT XI-V 26 Jan 20:21:54 20:25:02 18° 297° (WNW) 20:28:03 437.345
VELOX 1 26 Jan 20:28:44 20:30:16 12° 59° (ENE) 20:32:01 145.980
Oscar 11 26 Jan 20:30:47 20:34:55 44° 71° (ENE) 20:39:05 145.826/435.025
AAUSAT CUBESAT 2 26 Jan 20:38:33 20:42:47 77° 258° (WSW) 20:47:01 437.432
CUTE 1.7 + AOD 2 26 Jan 20:40:01 20:44:11 47° 261° (W) 20:48:21 437.475
HO-68 26 Jan 20:41:41 20:48:40 54° 260° (W) 20:55:40 435.675
DOVE 4 26 Jan 20:47:54 20:52:51 64° 260° (W) 20:58:06 437.250
DELFI C3 26 Jan 20:50:46 20:54:47 58° 74° (ENE) 20:58:49 145.870
CUBEBUG 2 26 Jan 20:52:13 20:56:50 54° 72° (ENE) 21:01:33 437.445
STRAND 1 26 Jan 20:54:31 20:57:43 16° 301° (WNW) 21:00:44 437.568
CINEMA 3 26 Jan 20:56:45 21:01:40 86° 257° (WSW) 21:06:46 145.822/145.860
UKube-1 26 Jan 21:04:19 21:08:35 62° 73° (ENE) 21:12:54 .
ZACube-1 26 Jan 21:12:52 21:17:23 62° 74° (ENE) 21:21:59 437.345
SEEDS 26 Jan 21:15:42 21:19:13 24° 267° (W) 21:22:40 437.485
DX 1 26 Jan 21:21:31 21:25:52 84° 254° (WSW) 21:30:16 434.975-435.025
FUNcube-1 26 Jan 21:25:47 21:30:22 82° 76° (ENE) 21:35:01 145.935
ESTCUBE 1 26 Jan 21:26:51 21:30:05 20° 64° (ENE) 21:33:26 437.505/2401.250
AISAT 26 Jan 21:32:09 21:36:25 48° 71° (ENE) 21:40:46 437.250
SO-50 26 Jan 21:34:53 21:36:46 12° 251° (WSW) 21:38:21 436.795
TIGRISAT 26 Jan 21:37:43 21:39:15 12° 86° (E) 21:41:01 435.000
UWE-3 26 Jan 21:38:33 21:43:11 63° 260° (W) 21:47:53 435.000/436.395/437.385
HUMSAT D 26 Jan 21:38:56 21:43:15 65° 74° (ENE) 21:47:36 437.325/437.525
YUBILEINY 26 Jan 21:39:28 21:47:13 34° 294° (WNW) 21:54:52 435.215
AIST 1 26 Jan 21:40:03 21:42:49 17° 67° (ENE) 21:45:43
50 SAT 26 Jan 21:42:15 21:46:16 53° 73° (ENE) 21:50:20 437.505
COMPASS 1 26 Jan 21:48:05 21:50:20 14° 272° (W) 21:52:23 437.405
VELOX 1 26 Jan 22:01:49 22:06:16 86° 259° (WSW) 22:10:46 145.980
GOMX 1 26 Jan 22:04:16 22:05:47 11° 278° (W) 22:06:58 467.674
Oscar 11 26 Jan 22:08:12 22:11:22 19° 269° (W) 22:14:25 145.826/435.025
SPROUT 26 Jan 22:18:03 22:20:38 16° 63° (ENE) 22:23:21 437.525
CUBEBUG 1 26 Jan 22:19:12 22:23:28 59° 73° (ENE) 22:27:48 437.445
NANOSAT C BR1 26 Jan 22:21:00 22:24:11 20° 92° (E) 22:27:27 145.865
UNISAT 6 26 Jan 22:27:04 22:31:18 39° 97° (E) 22:35:26 437.425
DELFI C3 26 Jan 22:28:26 22:30:28 13° 272° (W) 22:32:19 145.870
CUBEBUG 2 26 Jan 22:30:35 22:33:56 18° 271° (W) 22:37:11 437.445
QB50P2 26 Jan 22:33:16 22:36:58 28° 94° (E) 22:40:42 145.880/145.840
ISS 26 Jan 22:33:55 22:36:31 22° 138° (SE) 22:39:12 145.825
CINEMA 3 26 Jan 22:38:27 22:39:47 11° 277° (W) 22:40:49 145.822/145.860
UKube-1 26 Jan 22:42:59 22:45:16 14° 271° (W) 22:47:21 .
QB50P1 26 Jan 22:43:29 22:47:25 34° 96° (E) 22:51:23 145.935-145.965
ZACube-1 26 Jan 22:51:29 22:54:16 15° 272° (W) 22:56:53 437.345
POLYITAN 1 26 Jan 22:56:08 23:00:20 48° 99° (E) 23:04:31 437.675
ESTCUBE 1 26 Jan 23:02:22 23:06:42 46° 261° (W) 23:11:02 437.505/2401.250
ANTELSAT 26 Jan 23:02:39 23:07:12 89° 301° (WNW) 23:11:36 437.575/2403.000
TISAT 1 26 Jan 23:03:27 23:07:27 43° 71° (ENE) 23:11:32 437.305
FUNcube-1 26 Jan 23:05:51 23:07:26 11° 275° (W) 23:08:45 145.935
BUGSAT 1 26 Jan 23:10:11 23:14:22 52° 100° (E) 23:18:34 437.445
AISAT 26 Jan 23:10:14 23:13:23 18° 269° (W) 23:16:24 437.250
TIGRISAT 26 Jan 23:12:10 23:16:42 74° 286° (WNW) 23:21:04 435.000
AIST 1 26 Jan 23:16:38 23:20:50 49° 266° (W) 23:25:02
HUMSAT D 26 Jan 23:17:24 23:19:34 13° 272° (W) 23:21:32 437.325/437.525
POPSAT HIP 1 26 Jan 23:17:39 23:22:01 81° 102° (ESE) 23:26:19 437.405
50 SAT 26 Jan 23:19:22 23:21:47 15° 271° (W) 23:24:03 437.505
DUCHIFAT 1 26 Jan 23:22:02 23:26:23 88° 102° (ESE) 23:30:41 145.980
SWISSCUBE 26 Jan 23:45:57 23:49:44 25° 65° (ENE) 23:53:37 437.505
GONETS M04 26 Jan 23:51:59 23:56:23 16° 76° (ENE) 00:01:20
SPROUT 26 Jan 23:52:05 23:56:20 57° 260° (W) 00:00:38 437.525
NANOSAT C BR1 26 Jan 23:56:13 00:00:17 40° 290° (WNW) 00:04:17 145.865
CUBEBUG 1 26 Jan 23:57:53 00:00:20 14° 272° (W) 00:02:37 437.445
BEESAT 27 Jan 00:01:53 00:06:02 31° 67° (ENE) 00:10:16 436.000
ITUPSAT 1 27 Jan 00:03:56 00:08:07 32° 67° (ENE) 00:12:23 437.325
UNISAT 6 27 Jan 00:04:18 00:07:55 23° 295° (WNW) 00:11:22 437.425
QB50P2 27 Jan 00:09:06 00:12:54 30° 292° (WNW) 00:16:38 145.880/145.840
ISS 27 Jan 00:09:34 00:12:50 60° 335° (NNW) 00:16:07 145.825
QB50P1 27 Jan 00:19:40 00:23:12 24° 293° (WNW) 00:26:39 145.935-145.965
POLYITAN 1 27 Jan 00:32:54 00:35:58 19° 296° (WNW) 00:38:56 437.675
TISAT 1 27 Jan 00:40:29 00:43:32 19° 269° (W) 00:46:30 437.305
ANTELSAT 27 Jan 00:41:50 00:43:20 11° 301° (WNW) 00:44:38 437.575/2403.000
BUGSAT 1 27 Jan 00:46:40 00:49:33 17° 296° (WNW) 00:52:17 437.445
POPSAT HIP 1 27 Jan 00:55:35 00:57:22 12° 299° (WNW) 00:58:57 437.405
DUCHIFAT 1 27 Jan 01:00:20 01:01:39 11° 300° (WNW) 01:02:44 145.980
KKS-1 27 Jan 01:07:58 01:11:48 29° 67° (ENE) 01:15:44 437.445
STARS 27 Jan 01:08:31 01:11:46 21° 64° (ENE) 01:15:08 437.465
AUBIESAT-1 27 Jan 01:19:19 01:22:05 19° 62° (ENE) 01:24:49 437.475
Oscar 19 27 Jan 01:22:23 01:27:20 45° 98° (E) 01:32:15 437.125/150
SWISSCUBE 27 Jan 01:22:55 01:27:26 42° 262° (W) 01:31:57 437.505
O/OREOS (USA 219) 27 Jan 01:22:59 01:26:36 23° 52° (NE) 01:30:16 437.305
ITAMSAT 1 27 Jan 01:32:59 01:36:49 21° 91° (E) 01:40:47 435.822/435.867
BEESAT 27 Jan 01:39:38 01:43:53 31° 264° (W) 01:48:08 436.000
ITUPSAT 1 27 Jan 01:41:48 01:46:02 31° 265° (W) 01:50:15 437.325
GONETS M04 27 Jan 01:43:11 01:51:55 76° 95° (E) 02:00:39
ISS 27 Jan 01:46:56 01:49:47 26° 354° (N) 01:52:40 145.825
Gurwin Techsat 1B 27 Jan 02:13:23 02:18:11 34° 95° (E) 02:23:00 435.225
M-CUBED/EXP-1 PRIME 27 Jan 02:17:11 02:21:19 89° 74° (ENE) 02:25:07 437.505
STARS 27 Jan 02:43:42 02:47:59 45° 261° (W) 02:52:18 437.465
KKS-1 27 Jan 02:44:26 02:48:25 31° 265° (W) 02:52:25 437.445
HORYU 2 27 Jan 02:46:06 02:49:22 20° 92° (E) 02:52:45 437.375
AIST 2 27 Jan 02:47:59 02:50:38 17° 112° (ESE) 02:53:26 435.215
AUBIESAT-1 27 Jan 02:53:01 02:56:52 39° 255° (WSW) 03:00:27 437.475
DANDE 27 Jan 03:01:28 03:06:15 18° 78° (ENE) 03:11:40 436.750
O/OREOS (USA 219) 27 Jan 03:01:52 03:06:18 47° 251° (WSW) 03:10:41 437.305
Oscar 19 27 Jan 03:02:13 03:06:30 26° 296° (WNW) 03:10:40 437.125/150
BEESAT 2 27 Jan 03:04:36 03:08:36 53° 121° (ESE) 03:12:42 435.950
ITAMSAT 1 27 Jan 03:11:36 03:16:43 55° 289° (WNW) 03:21:49 435.822/435.867
BEESAT 3 27 Jan 03:21:23 03:25:30 88° 125° (SE) 03:29:41 437.485
ISS 27 Jan 03:23:51 03:26:55 33° 15° (NNE) 03:29:58 145.825
AO-7 27 Jan 03:36:39 03:44:03 35° 95° (E) 03:51:30 29.400- 29.500
CUSAT 1 27 Jan 03:41:39 03:48:51 38° 88° (E) 03:56:28 437.405
GONETS M04 27 Jan 03:42:36 03:49:49 27° 298° (WNW) 03:56:47
PCSat 27 Jan 03:47:50 03:50:55 16° 106° (ESE) 03:54:15 145.827
Gurwin Techsat 1B 27 Jan 03:53:22 03:58:12 35° 293° (WNW) 04:02:57 435.225
MOZHAYETS 4 27 Jan 04:03:36 04:08:11 76° 75° (ENE) 04:12:47
RS-15 27 Jan 04:21:55 04:31:08 35° 108° (ESE) 04:40:40 29.354- 29.394
HORYU 2 27 Jan 04:22:03 04:26:18 42° 290° (WNW) 04:30:28 437.375
AIST 2 27 Jan 04:24:38 04:28:51 59° 309° (NW) 04:33:08 435.215
DANDE 27 Jan 04:40:24 04:48:28 74° 97° (E) 04:57:11 436.750
BEESAT 2 27 Jan 04:43:49 04:47:08 22° 320° (NW) 04:50:27 435.950
JAS-2 27 Jan 04:49:55 04:55:22 58° 101° (E) 05:01:27 435.910
STRAND 1 27 Jan 04:54:39 04:58:14 20° 62° (ENE) 05:01:58 437.568
ISS 27 Jan 05:00:19 05:03:36 63° 214° (SW) 05:06:53 145.825
BEESAT 3 27 Jan 05:01:37 05:04:17 16° 325° (NW) 05:06:51 437.485
CUTE-I 27 Jan 05:16:37 05:19:33 15° 87° (E) 05:22:45 437.470
PRISM 27 Jan 05:20:02 05:24:02 55° 73° (ENE) 05:28:05 437.425
CUSAT 1 27 Jan 05:23:36 05:31:40 58° 287° (WNW) 05:39:58 437.405
PCSat 27 Jan 05:28:19 05:33:44 80° 302° (WNW) 05:39:13 145.827
AO-7 27 Jan 05:29:08 05:37:19 59° 295° (WNW) 05:45:22 29.400- 29.500
MOZHAYETS 4 27 Jan 05:44:09 05:46:04 12° 274° (W) 05:47:46
CUBESAT XI-V 27 Jan 05:48:45 05:53:19 72° 75° (ENE) 05:57:57 437.345
YUBILEINY 27 Jan 05:49:01 05:56:39 33° 66° (ENE) 06:04:28 435.215
AIST 2 27 Jan 06:06:24 06:08:25 13° 330° (NNW) 06:10:21 435.215
DANDE 27 Jan 06:25:34 06:32:50 31° 298° (WNW) 06:40:11 436.750
RS-15 27 Jan 06:31:49 06:42:43 73° 310° (NW) 06:53:50 29.354- 29.394
STRAND 1 27 Jan 06:32:01 06:37:03 60° 259° (W) 06:42:07 437.568
Cubesat XI-IV 27 Jan 06:34:11 06:39:34 73° 102° (ESE) 06:44:57 437.490
JAS-2 27 Jan 06:35:57 06:40:16 23° 296° (WNW) 06:44:44 435.910
CUTE-I 27 Jan 06:54:58 07:00:21 77° 287° (WNW) 07:05:44 437.470
PRISM 27 Jan 06:57:44 07:00:00 14° 271° (W) 07:02:04 437.425
CUSAT 1 27 Jan 07:11:56 07:16:44 15° 309° (NW) 07:21:06 437.405
PCSat 27 Jan 07:14:20 07:18:06 18° 325° (NW) 07:21:46 145.827
AO-7 27 Jan 07:23:45 07:28:32 16° 317° (NW) 07:33:00 29.400- 29.500
CUBESAT XI-V 27 Jan 07:29:15 07:31:24 13° 273° (W) 07:33:21 437.345
YUBILEINY 27 Jan 07:45:31 07:54:07 62° 268° (W) 08:02:42 435.215
CANX-2 27 Jan 08:00:03 08:02:29 15° 89° (E) 08:05:05 2200.000
HO-68 27 Jan 08:07:23 08:13:14 27° 92° (E) 08:19:15 435.675
BRITE-PL 27 Jan 08:13:58 08:19:10 36° 94° (E) 08:24:16 437.365/2234.400
Cubesat XI-IV 27 Jan 08:15:30 08:19:10 18° 300° (WNW) 08:22:40 437.490
AAUSAT CUBESAT 2 27 Jan 08:21:25 08:23:41 15° 89° (E) 08:26:06 437.432
GOMX 1 27 Jan 08:22:05 08:26:48 30° 92° (E) 08:31:26 467.674
CUTE 1.7 + AOD 2 27 Jan 08:23:48 08:27:17 25° 93° (E) 08:30:48 437.475
ANTELSAT 27 Jan 08:29:26 08:31:46 14° 61° (ENE) 08:34:17 437.575/2403.000
CUTE-I 27 Jan 08:37:12 08:39:39 13° 304° (NW) 08:41:51 437.470
TIGRISAT 27 Jan 08:38:04 08:40:54 16° 62° (ENE) 08:43:54 435.000
DUCHIFAT 1 27 Jan 08:45:08 08:45:33 10° 59° (ENE) 08:46:11 145.980
DOVE 4 27 Jan 08:45:38 08:50:23 34° 94° (E) 08:55:01 437.250
RS-15 27 Jan 08:47:51 08:57:25 32° 340° (NNW) 09:07:07 29.354- 29.394
CINEMA 3 27 Jan 08:50:59 08:54:41 22° 90° (E) 08:58:24 145.822/145.860
SEEDS 27 Jan 08:57:27 09:01:32 48° 99° (E) 09:05:36 437.485
ZACube-1 27 Jan 09:02:57 09:03:34 10° 85° (E) 09:04:28 437.345
DX 1 27 Jan 09:09:23 09:11:46 15° 89° (E) 09:14:20 434.975-435.025
FUNcube-1 27 Jan 09:14:19 09:16:35 14° 87° (E) 09:19:01 145.935
NANOSAT C BR1 27 Jan 09:16:06 09:19:16 21° 65° (ENE) 09:22:34 145.865
COMPASS 1 27 Jan 09:27:24 09:31:37 87° 101° (E) 09:35:47 437.405
UWE-3 27 Jan 09:27:32 09:31:10 24° 92° (E) 09:34:47 435.000/436.395/437.385
UNISAT 6 27 Jan 09:27:44 09:32:14 46° 71° (ENE) 09:36:46 437.425
QB50P2 27 Jan 09:28:29 09:32:08 28° 68° (ENE) 09:35:51 145.880/145.840
CANX-2 27 Jan 09:34:41 09:38:50 51° 287° (WNW) 09:42:55 2200.000
PHONESAT 2.4 27 Jan 09:36:06 09:37:19 11° 151° (SSE) 09:38:36 2401.200-2431.200
QB50P1 27 Jan 09:38:25 09:42:17 34° 69° (ENE) 09:46:13 145.935-145.965
BEESAT 2 27 Jan 09:45:47 09:47:42 13° 31° (NNE) 09:49:44 435.950
YUBILEINY 27 Jan 09:46:18 09:49:16 12° 287° (WNW) 09:51:34 435.215
POLYITAN 1 27 Jan 09:51:16 09:55:24 47° 72° (ENE) 09:59:36 437.675
VELOX 1 27 Jan 09:51:49 09:54:31 16° 89° (E) 09:57:23 145.980
Oscar 11 27 Jan 09:52:01 09:56:21 69° 102° (ESE) 10:00:38 145.826/435.025
BRITE-PL 27 Jan 09:52:26 09:57:41 38° 292° (WNW) 10:02:45 437.365/2234.400
HO-68 27 Jan 09:54:27 10:01:31 63° 292° (WNW) 10:08:33 435.675
AAUSAT CUBESAT 2 27 Jan 09:55:41 09:59:45 52° 287° (WNW) 10:03:47 437.432
CUTE 1.7 + AOD 2 27 Jan 09:59:30 10:03:17 31° 291° (WNW) 10:07:00 437.475
GOMX 1 27 Jan 09:59:53 10:05:03 42° 291° (WNW) 10:10:00 467.674
BEESAT 3 27 Jan 10:01:51 10:04:38 17° 36° (NE) 10:07:28 437.485
BUGSAT 1 27 Jan 10:02:28 10:06:23 47° 72° (ENE) 10:10:24 437.445
ANTELSAT 27 Jan 10:03:17 10:08:01 80° 258° (WSW) 10:12:45 437.575/2403.000
DELFI C3 27 Jan 10:04:10 10:08:14 78° 102° (ESE) 10:12:16 145.870
SO-50 27 Jan 10:09:45 10:12:58 20° 112° (ESE) 10:16:24 436.795
POPSAT HIP 1 27 Jan 10:12:26 10:16:42 79° 76° (ENE) 10:21:02 437.405
TIGRISAT 27 Jan 10:12:30 10:17:12 67° 258° (WSW) 10:21:54 435.000
DUCHIFAT 1 27 Jan 10:16:30 10:20:46 86° 78° (ENE) 10:25:05 145.980
CUBEBUG 2 27 Jan 10:18:19 10:23:00 89° 278° (W) 10:27:30 437.445
DOVE 4 27 Jan 10:23:23 10:28:08 34° 293° (WNW) 10:32:40 437.250
UKube-1 27 Jan 10:26:03 10:30:26 87° 104° (ESE) 10:34:48 .
VERMONT LUNAR 27 Jan 10:27:00 10:30:00 27° 164° (SSE) 10:33:01 437.305
CINEMA 3 27 Jan 10:27:28 10:32:13 47° 289° (WNW) 10:36:44 145.822/145.860
SEEDS 27 Jan 10:34:12 10:37:03 17° 296° (WNW) 10:39:46 437.485
ZACube-1 27 Jan 10:36:11 10:40:43 82° 284° (WNW) 10:45:04 437.345
DX 1 27 Jan 10:44:08 10:48:29 59° 287° (WNW) 10:52:48 434.975-435.025
FUNcube-1 27 Jan 10:49:02 10:53:28 61° 286° (WNW) 10:57:46 145.935
NANOSAT C BR1 27 Jan 10:50:54 10:54:57 40° 262° (W) 10:59:01 145.865
ESTCUBE 1 27 Jan 10:53:12 10:57:13 31° 95° (E) 11:01:16 437.505/2401.250
50 SAT 27 Jan 10:54:48 10:58:53 68° 101° (E) 11:02:54 437.505
HUMSAT D 27 Jan 10:57:16 11:01:34 86° 285° (WNW) 11:05:47 437.325/437.525
AISAT 27 Jan 10:57:29 11:02:01 76° 102° (ESE) 11:06:32 437.250
UWE-3 27 Jan 11:03:38 11:07:53 37° 290° (WNW) 11:11:57 435.000/436.395/437.385
QB50P2 27 Jan 11:04:14 11:08:02 29° 265° (W) 11:11:48 145.880/145.840
RS-15 27 Jan 11:04:44 11:14:05 30° 14° (NNE) 11:23:51 29.354- 29.394
UNISAT 6 27 Jan 11:05:40 11:09:17 21° 269° (W) 11:12:49 437.425
Oscar 19 27 Jan 11:05:41 11:07:43 13° 57° (ENE) 11:10:00 437.125/150
COMPASS 1 27 Jan 11:05:51 11:06:45 10° 300° (WNW) 11:07:26 437.405
AIST 2 27 Jan 11:06:37 11:10:12 25° 41° (NE) 11:13:48 435.215
PHONESAT 2.4 27 Jan 11:12:02 11:15:14 30° 166° (SSE) 11:18:29 2401.200-2431.200
QB50P1 27 Jan 11:14:48 11:18:17 23° 267° (W) 11:21:44 145.935-145.965
BEESAT 2 27 Jan 11:22:37 11:26:47 65° 52° (NE) 11:30:55 435.950
VELOX 1 27 Jan 11:27:06 11:31:32 56° 288° (WNW) 11:35:56 145.980
POLYITAN 1 27 Jan 11:28:43 11:31:40 17° 270° (W) 11:34:30 437.675
Oscar 11 27 Jan 11:29:47 11:32:03 14° 298° (WNW) 11:34:08 145.826/435.025
SPROUT 27 Jan 11:37:30 11:40:49 22° 92° (E) 11:44:14 437.525
BEESAT 3 27 Jan 11:39:09 11:43:20 79° 237° (WSW) 11:47:27 437.485
BUGSAT 1 27 Jan 11:39:34 11:42:13 16° 270° (W) 11:44:46 437.445
DELFI C3 27 Jan 11:41:42 11:42:57 11° 299° (WNW) 11:44:01 145.870
CUBEBUG 1 27 Jan 11:42:20 11:46:49 88° 288° (WNW) 11:51:17 437.445
HO-68 27 Jan 11:44:14 11:48:02 15° 311° (NW) 11:51:30 435.675
AIST 1 27 Jan 11:48:01 11:52:16 88° 88° (E) 11:56:34
SO-50 27 Jan 11:48:36 11:53:08 58° 310° (NW) 11:57:50 436.795
GONETS M04 27 Jan 11:51:05 11:59:11 42° 70° (ENE) 12:07:21
POPSAT HIP 1 27 Jan 11:52:24 11:53:17 10° 274° (W) 11:53:55 437.405
CUBEBUG 2 27 Jan 11:57:13 11:59:01 12° 301° (WNW) 12:00:35 437.445
Gurwin Techsat 1B 27 Jan 12:01:47 12:02:33 10° 55° (NE) 12:03:37 435.225
VERMONT LUNAR 27 Jan 12:04:27 12:07:44 38° 181° (S) 12:11:04 437.305
UKube-1 27 Jan 12:04:27 12:06:01 12° 301° (WNW) 12:07:23 .
ZACube-1 27 Jan 12:15:32 12:16:23 10° 301° (WNW) 12:16:58 437.345
TISAT 1 27 Jan 12:21:49 12:26:07 61° 101° (ESE) 12:30:21 437.305
ESTCUBE 1 27 Jan 12:30:08 12:34:04 29° 293° (WNW) 12:37:57 437.505/2401.250
PCSat 27 Jan 12:31:25 12:35:52 25° 41° (NE) 12:40:22 145.827
50 SAT 27 Jan 12:31:41 12:33:31 13° 298° (WNW) 12:35:12 437.505
AISAT 27 Jan 12:35:46 12:38:07 14° 299° (WNW) 12:40:18 437.250
Oscar 19 27 Jan 12:41:07 12:46:19 79° 76° (ENE) 12:51:33 437.125/150
AIST 2 27 Jan 12:44:55 12:49:03 46° 241° (WSW) 12:53:06 435.215
PHONESAT 2.4 27 Jan 12:50:01 12:53:27 39° 183° (S) 12:56:53 2401.200-2431.200
AO-7 27 Jan 12:50:07 12:54:25 16° 42° (NE) 12:59:03 29.400- 29.500
ITAMSAT 1 27 Jan 12:52:44 12:57:29 39° 68° (ENE) 13:02:18 435.822/435.867
BEESAT 2 27 Jan 13:02:11 13:04:35 15° 249° (WSW) 13:06:47 435.950
SPROUT 27 Jan 13:13:02 13:17:06 39° 290° (WNW) 13:21:08 437.525
RS-15 27 Jan 13:18:14 13:29:22 61° 45° (NE) 13:41:02 29.354- 29.394
SWISSCUBE 27 Jan 13:21:03 13:25:35 42° 98° (E) 13:30:08 437.505
CUBEBUG 1 27 Jan 13:21:10 13:22:35 11° 300° (WNW) 13:23:47 437.445
SO-50 27 Jan 13:32:09 13:34:46 14° 333° (NNW) 13:37:20 436.795
Gurwin Techsat 1B 27 Jan 13:36:23 13:41:37 64° 73° (ENE) 13:46:55 435.225
BEESAT 27 Jan 13:37:12 13:41:54 56° 100° (E) 13:46:37 436.000
ITUPSAT 1 27 Jan 13:39:40 13:44:25 58° 101° (E) 13:49:08 437.325
DANDE 27 Jan 13:42:17 13:45:47 14° 48° (NE) 13:49:14 436.750
VERMONT LUNAR 27 Jan 13:42:32 13:45:28 24° 198° (SSW) 13:48:23 437.305
HORYU 2 27 Jan 13:46:32 13:50:13 26° 66° (ENE) 13:53:58 437.375
GONETS M04 27 Jan 13:47:59 13:56:12 47° 271° (W) 14:04:18
TISAT 1 27 Jan 13:58:56 14:01:31 15° 297° (WNW) 14:03:57 437.305
PCSat 27 Jan 14:14:23 14:19:47 65° 243° (WSW) 14:25:08 145.827
CUSAT 1 27 Jan 14:21:57 14:27:38 27° 60° (ENE) 14:32:16 437.405
Oscar 19 27 Jan 14:23:33 14:26:24 14° 273° (W) 14:28:59 437.125/150
PHONESAT 2.4 27 Jan 14:28:38 14:31:35 23° 200° (SSW) 14:34:32 2401.200-2431.200
STARS 27 Jan 14:31:52 14:35:43 28° 95° (E) 14:39:35 437.465
ITAMSAT 1 27 Jan 14:32:35 14:37:06 29° 266° (W) 14:41:36 435.822/435.867
KKS-1 27 Jan 14:33:06 14:37:24 43° 98° (E) 14:41:42 437.445
AO-7 27 Jan 14:37:31 14:45:36 57° 64° (ENE) 14:53:45 29.400- 29.500
SWISSCUBE 27 Jan 14:59:23 15:03:16 25° 295° (WNW) 15:07:03 437.505
JAS-2 27 Jan 15:05:42 15:10:18 29° 66° (ENE) 15:14:47 435.910
BEESAT 27 Jan 15:16:00 15:19:24 19° 297° (WNW) 15:22:41 436.000
Gurwin Techsat 1B 27 Jan 15:18:27 15:22:09 18° 271° (W) 15:25:40 435.225
ITUPSAT 1 27 Jan 15:18:34 15:21:56 19° 298° (WNW) 15:25:10 437.325
HORYU 2 27 Jan 15:22:35 15:26:46 36° 263° (W) 15:30:55 437.375
DANDE 27 Jan 15:24:00 15:31:18 69° 75° (ENE) 15:36:44 436.750
RS-15 27 Jan 15:31:00 15:41:41 48° 248° (WSW) 15:52:39 29.354- 29.394
M-CUBED/EXP-1 PRIME 27 Jan 15:32:21 15:35:33 43° 105° (ESE) 15:38:47 437.505
O/OREOS (USA 219) 27 Jan 15:38:50 15:41:20 15° 101° (E) 15:44:02 437.305
